This is the latest recevied weather packets stored in our database for station/object K7BC. If no packets are shown the sender has not sent any weather packets the latest 10 day(s).
| Time | Temp. | Humidity | Pressure | Rain* | Wind** | Luminosity | Snow |
|---|---|---|---|---|---|---|---|
| 1777310742 | 19.44° C | 47% | 1024.2 hPa | 0 mm | - | - | - |
| 1777310622 | 19.44° C | 48% | 1024.3 hPa | 0 mm | - | - | - |
| 1777310502 | 18.89° C | 46% | 1024.3 hPa | 0 mm | - | - | - |
| 1777310382 | 18.89° C | 49% | 1024.3 hPa | 0 mm | - | - | - |
| 1777310262 | 18.89° C | 48% | 1024.4 hPa | 0 mm | - | - | - |
| 1777310142 | 18.89° C | 50% | 1024.4 hPa | 0 mm | - | - | - |
| 1777310022 | 18.33° C | 51% | 1024.4 hPa | 0 mm | - | - | - |
| 1777309902 | 18.33° C | 51% | 1024.5 hPa | 0 mm | - | - | - |
| 1777309782 | 18.89° C | 50% | 1024.5 hPa | 0 mm | - | - | - |
| 1777309662 | 18.89° C | 50% | 1024.5 hPa | 0 mm | - | - | - |
| 1777309542 | 18.89° C | 51% | 1024.5 hPa | 0 mm | - | - | - |
| 1777309422 | 18.89° C | 51% | 1024.5 hPa | 0 mm | - | - | - |
| 1777309302 | 19.44° C | 49% | 1024.6 hPa | 0 mm | - | - | - |
| 1777309182 | 20° C | 50% | 1024.7 hPa | 0 mm | - | - | - |
| 1777309062 | 20° C | 52% | 1024.7 hPa | 0 mm | - | - | - |
| 1777308942 | 19.44° C | 50% | 1024.6 hPa | 0 mm | - | - | - |
| 1777308822 | 19.44° C | 52% | 1024.7 hPa | 0 mm | - | - | - |
| 1777308702 | 19.44° C | 52% | 1024.7 hPa | 0 mm | - | - | - |
| 1777308582 | 19.44° C | 52% | 1024.7 hPa | 0 mm | - | - | - |
| 1777308462 | 19.44° C | 50% | 1024.7 hPa | 0 mm | - | - | - |
| 1777308342 | 19.44° C | 51% | 1024.8 hPa | 0 mm | - | - | - |
| 1777308222 | 19.44° C | 52% | 1024.8 hPa | 0 mm | - | - | - |
| 1777308101 | 18.89° C | 51% | 1024.8 hPa | 0 mm | - | - | - |
| 1777307982 | 19.44° C | 52% | 1024.9 hPa | 0 mm | - | - | - |
| 1777307861 | 19.44° C | 51% | 1024.9 hPa | 0 mm | - | - | - |
* Rain latest hour (hover to see other rain measurements)
** Current wind speed in m/s (hover to see current wind gust speed)